| time (UTC) | temp C | wind direction | speed KPH | gust KPH | rain 1hr cm | rain 24hr cm | rain mn cm | humidity % | barometer mb |
| 20260508050147 | 10 | 245 | 0.0 | 0.0 | 0.00 | 0.76 | 0.00 | 95 | 1017.0 |
| 20260508044548 | 10 | 245 | 0.0 | 0.0 | 0.00 | 1.24 | 0.00 | 95 | 1017.0 |
| 20260508043042 | 10 | 245 | 0.0 | 0.0 | 0.00 | 1.24 | 0.00 | 95 | 1016.8 |
| 20260508041541 | 10 | 246 | 0.0 | 0.0 | 0.00 | 1.24 | 0.00 | 95 | 1016.8 |
| 20260508040139 | 10 | 205 | 0.0 | 0.0 | 0.00 | 1.24 | 0.00 | 95 | 1016.8 |
| 20260508034554 | 11 | 205 | 0.0 | 0.0 | 0.00 | 1.35 | 1.24 | 95 | 1016.6 |
| 20260508033057 | 11 | 205 | 0.0 | 0.0 | 0.00 | 1.35 | 1.24 | 95 | 1016.3 |
| 20260508031556 | 11 | 205 | 0.0 | 0.0 | 0.00 | 1.35 | 1.24 | 95 | 1016.2 |
| 20260508030149 | 12 | 205 | 0.0 | 0.0 | 0.00 | 1.35 | 1.24 | 95 | 1016.2 |
| 20260508024610 | 12 | 205 | 0.0 | 0.0 | 0.00 | 1.37 | 1.24 | 95 | 1016.2 |
| 20260508023041 | 12 | 205 | 0.0 | 0.0 | 0.00 | 1.37 | 1.24 | 95 | 1016.0 |
| 20260508021546 | 12 | 205 | 0.0 | 0.0 | 0.00 | 1.37 | 1.24 | 95 | 1015.8 |
| 20260508020139 | 12 | 205 | 0.0 | 0.0 | 0.00 | 1.37 | 1.24 | 95 | 1015.6 |
| 20260508014557 | 12 | 205 | 0.0 | 0.0 | 0.00 | 1.37 | 1.24 | 95 | 1015.4 |
| 20260508013055 | 12 | 205 | 0.0 | 0.0 | 0.00 | 1.37 | 1.24 | 95 | 1015.2 |
| 20260508011602 | 12 | 205 | 0.0 | 0.0 | 0.00 | 1.37 | 1.24 | 95 | 1014.6 |
| 20260508010151 | 12 | 68 | 0.0 | 0.0 | 0.00 | 1.37 | 1.24 | 95 | 1014.4 |
| 20260508004551 | 12 | 207 | 0.0 | 0.0 | 0.00 | 1.37 | 1.24 | 95 | 1014.6 |
| 20260508003042 | 12 | 208 | 0.0 | 0.0 | 0.00 | 1.37 | 1.24 | 95 | 1014.5 |
| 20260508001547 | 12 | 208 | 0.0 | 0.0 | 0.00 | 1.37 | 1.24 | 95 | 1014.3 |
| 20260508000141 | 12 | 213 | 0.0 | 1.6 | 0.00 | 1.37 | 1.24 | 95 | 1014.3 |
| 20260507234536 | 13 | 326 | 0.0 | 0.0 | 0.00 | 1.37 | 1.24 | 95 | 1013.9 |
| 20260507233034 | 13 | 79 | 0.0 | 1.6 | 0.00 | 1.37 | 1.24 | 95 | 1013.6 |
| 20260507231536 | 13 | 212 | 0.0 | 1.6 | 0.00 | 1.37 | 1.24 | 95 | 1013.2 |
| 20260507230133 | 13 | 124 | 0.0 | 3.2 | 0.00 | 1.37 | 1.24 | 95 | 1013.1 |
| 20260507224555 | 13 | 229 | 0.0 | 1.6 | 0.03 | 1.37 | 1.24 | 95 | 1013.4 |
| 20260507223051 | 13 | 81 | 0.0 | 3.2 | 0.05 | 1.37 | 1.24 | 95 | 1013.2 |
| 20260507221548 | 13 | 123 | 0.0 | 12.9 | 0.05 | 1.37 | 1.24 | 95 | 1012.8 |
| 20260507220146 | 13 | 169 | 0.0 | 4.8 | 0.05 | 1.37 | 1.24 | 94 | 1012.9 |
| 20260507214543 | 13 | 275 | 0.0 | 6.4 | 0.03 | 1.35 | 1.22 | 93 | 1013.1 |
| 20260507213042 | 14 | 134 | 0.0 | 4.8 | 0.00 | 1.32 | 1.19 | 92 | 1012.8 |
| 20260507211542 | 13 | 102 | 0.0 | 6.4 | 0.00 | 1.32 | 1.19 | 91 | 1012.7 |
| 20260507210139 | 14 | 285 | 0.0 | 4.8 | 0.00 | 1.32 | 1.19 | 92 | 1012.7 |
| 20260507204555 | 14 | 180 | 0.0 | 6.4 | 0.00 | 1.32 | 1.19 | 92 | 1012.5 |
| 20260507203114 | 14 | 108 | 1.6 | 8.0 | 0.00 | 1.32 | 1.19 | 93 | 1012.3 |
| 20260507201551 | 15 | 248 | 0.0 | 8.0 | 0.00 | 1.32 | 1.19 | 93 | 1012.2 |
| 20260507200150 | 15 | 164 | 0.0 | 4.8 | 0.00 | 1.32 | 1.19 | 93 | 1012.3 |
| 20260507194555 | 15 | 210 | 0.0 | 4.8 | 0.00 | 1.40 | 1.19 | 94 | 1012.2 |
| 20260507193042 | 15 | 280 | 0.0 | 6.4 | 0.00 | 1.40 | 1.19 | 94 | 1012.2 |
| 20260507191545 | 15 | 200 | 1.6 | 12.9 | 0.00 | 1.40 | 1.19 | 94 | 1012.3 |
| 20260507190143 | 15 | 295 | 0.0 | 9.7 | 0.00 | 1.40 | 1.19 | 94 | 1012.4 |
| 20260507184543 | 15 | 284 | 0.0 | 14.5 | 0.00 | 1.70 | 1.19 | 95 | 1012.2 |
| 20260507183040 | 14 | 56 | 0.0 | 17.7 | 0.03 | 1.70 | 1.19 | 95 | 1011.9 |
| 20260507181537 | 15 | 352 | 0.0 | 9.7 | 0.08 | 1.70 | 1.19 | 95 | 1012.4 |
| 20260507180133 | 15 | 155 | 1.6 | 4.8 | 0.08 | 1.70 | 1.19 | 94 | 1011.6 |
| 20260507174550 | 16 | 307 | 0.0 | 14.5 | 0.08 | 1.70 | 1.19 | 93 | 1012.1 |
| 20260507173115 | 20 | 229 | 0.0 | 0.0 | 0.08 | 1.68 | 1.17 | 95 | 1012.0 |
| 20260507171545 | 20 | 225 | 0.0 | 1.6 | 0.05 | 1.63 | 1.12 | 95 | 1011.4 |
| 20260507170146 | 20 | 218 | 0.0 | 1.6 | 0.08 | 1.63 | 1.12 | 95 | 1011.0 |
| 20260507164544 | 20 | 126 | 0.0 | 1.6 | 0.10 | 1.63 | 1.12 | 95 | 1010.9 |
| 20260507163043 | 20 | 165 | 0.0 | 0.0 | 0.10 | 1.60 | 1.09 | 95 | 1011.1 |
| 20260507161547 | 20 | 165 | 0.0 | 1.6 | 0.08 | 1.57 | 1.07 | 95 | 1011.6 |
| 20260507160138 | 20 | 348 | 0.0 | 3.2 | 0.05 | 1.55 | 1.04 | 95 | 1012.5 |
| 20260507154553 | 20 | 357 | 0.0 | 1.6 | 0.05 | 1.52 | 1.02 | 95 | 1012.6 |
| 20260507153057 | 20 | 93 | 0.0 | 6.4 | 0.05 | 1.50 | 0.99 | 95 | 1012.5 |
| 20260507151550 | 20 | 78 | 0.0 | 0.0 | 0.05 | 1.50 | 0.99 | 95 | 1011.8 |
| 20260507150151 | 20 | 78 | 0.0 | 0.0 | 0.13 | 1.50 | 0.99 | 95 | 1012.1 |
| 20260507144550 | 20 | 100 | 0.0 | 1.6 | 0.13 | 1.45 | 0.97 | 95 | 1012.3 |
| 20260507143056 | 20 | 338 | 0.0 | 1.6 | 0.13 | 1.42 | 0.94 | 95 | 1011.9 |
| 20260507141553 | 19 | 313 | 0.0 | 0.0 | 0.18 | 1.42 | 0.94 | 95 | 1012.4 |
| 20260507140142 | 19 | 300 | 0.0 | 0.0 | 0.13 | 1.37 | 0.86 | 95 | 1012.1 |
| 20260507134537 | 19 | 300 | 0.0 | 1.6 | 0.13 | 1.35 | 0.84 | 95 | 1012.3 |
| 20260507133102 | 19 | 222 | 0.0 | 1.6 | 0.08 | 1.30 | 0.79 | 95 | 1012.9 |
| 20260507131536 | 18 | 284 | 0.0 | 1.6 | 0.05 | 1.27 | 0.76 | 95 | 1013.0 |
| 20260507130132 | 18 | 284 | 0.0 | 1.6 | 0.03 | 1.24 | 0.71 | 95 | 1012.9 |
| 20260507124549 | 18 | 295 | 0.0 | 0.0 | 0.00 | 1.22 | 0.71 | 95 | 1012.9 |
| 20260507123049 | 18 | 292 | 0.0 | 0.0 | 0.00 | 1.22 | 0.71 | 95 | 1012.9 |
| 20260507121545 | 18 | 103 | 0.0 | 0.0 | 0.00 | 1.22 | 0.71 | 95 | 1012.8 |
| 20260507120144 | 18 | 103 | 0.0 | 0.0 | 0.00 | 1.22 | 0.71 | 95 | 1012.6 |
| 20260507114555 | 18 | 103 | 0.0 | 0.0 | 0.00 | 1.22 | 0.71 | 95 | 1012.9 |
| 20260507113039 | 18 | 103 | 0.0 | 0.0 | 0.00 | 1.22 | 0.71 | 95 | 1012.7 |
| 20260507111538 | 18 | 103 | 0.0 | 0.0 | 0.00 | 1.22 | 0.71 | 95 | 1013.2 |
| 20260507110137 | 18 | 101 | 0.0 | 1.6 | 0.03 | 1.22 | 0.71 | 95 | 1013.2 |
| 20260507104551 | 18 | 106 | 0.0 | 1.6 | 0.05 | 1.22 | 0.71 | 95 | 1013.1 |
| 20260507103055 | 18 | 19 | 0.0 | 1.6 | 0.05 | 1.22 | 0.71 | 95 | 1012.8 |
| 20260507101549 | 17 | 35 | 0.0 | 0.0 | 0.05 | 1.22 | 0.71 | 95 | 1012.9 |
| 20260507100150 | 17 | 35 | 0.0 | 1.6 | 0.03 | 1.19 | 0.69 | 95 | 1012.7 |
| 20260507094555 | 17 | 34 | 0.0 | 0.0 | 0.00 | 1.17 | 0.66 | 95 | 1012.7 |
| 20260507093041 | 17 | 35 | 0.0 | 0.0 | 0.03 | 1.17 | 0.66 | 95 | 1012.8 |
| 20260507091541 | 17 | 35 | 0.0 | 0.0 | 0.03 | 1.17 | 0.66 | 95 | 1013.0 |
| 20260507090141 | 17 | 35 | 0.0 | 0.0 | 0.03 | 1.17 | 0.66 | 95 | 1012.8 |
| 20260507084539 | 17 | 313 | 0.0 | 0.0 | 0.03 | 1.17 | 0.66 | 95 | 1013.3 |
| 20260507083034 | 17 | 205 | 0.0 | 0.0 | 0.03 | 1.14 | 0.64 | 95 | 1013.0 |
| 20260507081538 | 17 | 205 | 0.0 | 0.0 | 0.13 | 1.14 | 0.64 | 95 | 1013.5 |
| 20260507080132 | 17 | 205 | 0.0 | 0.0 | 0.13 | 1.14 | 0.64 | 95 | 1013.8 |
| 20260507074551 | 17 | 205 | 0.0 | 0.0 | 0.15 | 1.14 | 0.64 | 95 | 1013.4 |
| 20260507073048 | 17 | 205 | 0.0 | 1.6 | 0.13 | 1.12 | 0.61 | 95 | 1013.3 |
| 20260507071543 | 17 | 131 | 0.0 | 0.0 | 0.03 | 1.02 | 0.51 | 95 | 1014.2 |
| 20260507070146 | 17 | 131 | 0.0 | 0.0 | 0.03 | 1.02 | 0.51 | 95 | 1014.2 |
| 20260507064546 | 17 | 131 | 0.0 | 0.0 | 0.00 | 0.99 | 0.48 | 95 | 1013.6 |
| 20260507063039 | 17 | 131 | 0.0 | 0.0 | 0.00 | 0.99 | 0.48 | 95 | 1014.5 |
| 20260507061540 | 17 | 131 | 0.0 | 0.0 | 0.00 | 0.99 | 0.48 | 95 | 1014.9 |
| 20260507060137 | 17 | 131 | 0.0 | 0.0 | 0.00 | 0.99 | 0.48 | 95 | 1014.4 |
| 20260507054552 | 18 | 131 | 0.0 | 0.0 | 0.05 | 0.99 | 0.48 | 95 | 1014.7 |
| 20260507053102 | 18 | 131 | 0.0 | 0.0 | 0.25 | 0.99 | 0.48 | 95 | 1015.3 |
| 20260507051551 | 18 | 131 | 0.0 | 1.6 | 0.33 | 0.99 | 0.48 | 95 | 1014.6 |